Regional Weather Roundup
Issued by NWS

Home | Current Version | Previous Version | Graphics & Text | Print | Product List | Glossary On
Versions: 1 2 3 4 5 6 7 8 9 10 11 12 13 14 15 16 17 18 19 20 21 22 23 24 25 26 27 28 29 30 31 32 33 34 35 36 37 38 39 40 41 42 43 44 45 46 47 48 49 50
000
ASUS44 KMEG 010300
RWRTN
TENNESSEE HOURLY STATE WEATHER ROUNDUP
NATIONAL WEATHER SERVICE MEMPHIS TN
1000 PM CDT MON AUG 31 2015

TNZ002-004-019-021-049-052-054-088>092-010400-
WEST TENNESSEE

CITY           SKY/WX    TMP DP  RH WIND       PRES   REMARKS
MEMPHIS INTL   PTCLDY    82  67  60 SE7       30.07R
NWS MEMPHIS      N/A     79 N/A N/A MISG        N/A
JACKSON        PTCLDY    71  69  93 CALM      30.08R
DYERSBURG      CLEAR     72  70  94 CALM      30.09R
UNION CITY     CLEAR     72  70  94 CALM      30.07S
PARIS          CLEAR     66  64  94 CALM      30.10S
LEXINGTON      CLEAR     70  70 100 CALM      30.09R
$$

TNZ008-025-027-028-033-062-065-066-010400-
NORTH MIDDLE TENNESSEE

CITY           SKY/WX    TMP DP  RH WIND       PRES   REMARKS
NASHVILLE      PTCLDY    74  65  73 S3        30.11R
CLARKSVILLE    CLEAR     71  66  84 CALM      30.09R
COOKEVILLE     CLEAR     68  66  94 CALM      30.12S
CROSSVILLE     CLEAR     68  64  87 CALM      30.18R
$$

TNZ061-075-076-078-094-096-097-010400-
SOUTH MIDDLE TENNESSEE

CITY           SKY/WX    TMP DP  RH WIND       PRES   REMARKS
FAYETTEVILLE     N/A     70  66  88 CALM      30.12S
TULLAHOMA      CLEAR     68  64  88 CALM      30.14S
WINCHESTER     CLEAR     68  66  94 CALM      30.14R
COLUMBIA       CLEAR     72  72 100 CALM      30.10S
SHELBYVILLE    CLEAR     72  70  94 CALM      30.13S
$$

TNZ017-018-042-046-047-010400-
NORTHEAST TENNESSEE

CITY           SKY/WX    TMP DP  RH WIND       PRES   REMARKS
TRI CITIES     CLEAR     68  65  90 CALM      30.14R
$$

TNZ012-013-036-069-073-074-010400-
CENTRAL EAST TENNESSEE

CITY           SKY/WX    TMP DP  RH WIND       PRES   REMARKS
KNOXVILLE      CLEAR     73  67  81 CALM      30.11R
OAK RIDGE      CLEAR     71  67  87 CALM      30.13R
GATLINBURG     CLEAR     70  63  78 CALM      30.12R
$$

TNZ083-085-099-010400-
SOUTHEAST TENNESSEE

CITY           SKY/WX    TMP DP  RH WIND       PRES   REMARKS
CHATTANOOGA    CLEAR     73  67  81 CALM      30.11R
$$

SKY/WX REPORTED AS FAIR MEANS FEW OR NO CLOUDS BELOW
12 THOUSAND FEET.




USA.gov is the U.S. government's official web portal to all federal, state and local government web resources and services.